Retour au catalogue

RS95S

QMR-KWT-2

ActifRadio amateurSSO
NORAD 67291·PAYLOAD·🇰🇼 Kuwait

Lancé Dec 28, 2025 depuis Vostochny Cosmodrome

Loading…

Prochains Passages (prochaines 24 heures)

TLE

FraisSource: AMSAT

Époque: Sep 13, 2026, 11:06 UTC

1 67291U 25313AV  26256.46305240  .00011024  00000-0  40121-3 0  9993
2 67291  97.3861 330.8513 0009260  49.9472 310.2578 15.28360312 39465

Suivez RS95S en temps réel avec AllMySat

Download on the App Store